Location: Caltech
(34.1382°N, 118.1253°W)
Time: 06:54:13
(UTC-07:00)

NOSS 3-2 (A) - Visible Passes

Search period start: 28 March 2017 00:00
Search period end: 07 April 2017 00:00
Orbit: 882 x 1326 km, 63.4° (Epoch: 27 March)

Date Brightness Start Highest point End Pass type
(mag) Time Alt. Az. Time Alt. Az. Time Alt. Az.
29 Mar 6.2 02:06:08 11° N 02:06:08 11° N 02:06:34 10° N visible
30 Mar 6.3 01:21:47 11° N 01:21:47 11° N 01:22:02 10° N visible
31 Mar 6.5 06:12:45 10° NNE 06:14:48 11° NNE 06:16:52 10° NE visible
01 Apr 6.3 01:40:16 10° NNW 01:40:16 10° NNW 01:40:29 10° N visible
02 Apr 6.2 00:55:45 12° N 00:55:45 12° N 00:56:22 10° N visible
03 Apr 6.2 00:11:08 12° N 00:11:08 12° N 00:11:37 10° NNE visible
03 Apr 6.4 05:46:19 10° N 05:49:59 14° NE 05:53:46 10° ENE visible
03 Apr 6.1 23:26:24 11° NNE 23:26:24 11° NNE 23:26:36 10° NNE visible
05 Apr 6.1 00:28:48 14° NNW 00:28:48 14° NNW 00:30:33 10° N visible
05 Apr 6.2 06:04:57 10° N 06:11:04 26° NE 06:17:31 10° E visible
05 Apr 5.8 23:43:37 18° N 23:43:37 18° N 23:46:03 10° N visible
06 Apr 6.4 05:20:22 10° N 05:25:06 17° NE 05:30:02 10° E visible
06 Apr 5.2 22:57:54 26° N 22:57:54 26° N 23:01:10 10° NNE visible
